Total_Precipitation_Accumulation
1.60 1.68 1.63 1.57 1.59 1.61 1.53 1.44 1.41 1.41 1.40 1.47 1.55 1.70 1.86 2.08 2.29 2.43 2.42 2.36 2.33 2.29 2.20 2.32 2.47 2.52 2.63 2.69 2.72 2.63 2.52 2.49 2.37 2.10 1.90 1.82 2.05 2.10 2.04 1.96 1.80 1.73 1.72
1.46 1.57 1.65 1.55 1.51 1.51 1.43 1.47 1.38 1.31 1.30 1.31 1.47 1.67 1.79 1.88 1.97 2.05 2.11 2.15 2.16 2.18 2.12 2.07 2.14 2.23 2.35 2.51 2.63 2.61 2.62 2.53 2.46 2.40 2.18 1.94 1.88 1.97 2.06 2.18 2.05 1.81 1.77
1.58 1.72 1.71 1.61 1.55 1.53 1.38 1.45 1.39 1.33 1.31 1.30 1.36 1.52 1.63 1.72 1.79 1.84 1.95 2.05 2.06 1.98 1.96 1.85 1.82 1.92 2.06 2.21 2.28 2.40 2.55 2.60 2.62 2.56 2.45 2.23 1.98 1.99 2.08 2.15 2.16 2.22 1.96
1.77 1.85 1.74 1.66 1.60 1.56 1.42 1.36 1.34 1.35 1.33 1.35 1.46 1.52 1.57 1.59 1.71 1.77 1.85 1.85 1.81 1.71 1.68 1.59 1.58 1.61 1.74 1.91 2.03 2.23 2.46 2.59 2.66 2.65 2.59 2.32 2.11 2.07 2.06 2.12 2.25 2.31 2.25
1.67 1.69 1.70 1.58 1.46 1.42 1.45 1.29 1.28 1.37 1.38 1.42 1.48 1.54 1.58 1.59 1.65 1.75 1.69 1.59 1.58 1.56 1.49 1.31 1.26 1.34 1.39 1.52 1.53 1.81 2.10 2.34 2.44 2.50 2.50 2.33 2.09 1.99 1.85 1.92 2.08 2.27 2.30
1.54 1.50 1.47 1.42 1.43 1.40 1.33 1.28 1.26 1.28 1.32 1.34 1.35 1.50 1.60 1.49 1.70 1.71 1.52 1.34 1.31 1.38 1.35 1.22 1.15 1.17 1.12 1.15 1.20 1.44 1.74 1.92 2.07 2.23 2.30 2.17 1.98 1.87 1.93 1.94 1.96 2.00 2.03
1.34 1.29 1.20 1.17 1.21 1.25 1.23 1.26 1.28 1.27 1.27 1.30 1.25 1.34 1.40 1.50 1.57 1.39 1.38 1.27 1.26 1.26 1.28 1.30 1.18 1.10 1.21 1.08 1.07 1.16 1.26 1.41 1.57 1.81 2.00 1.97 2.06 1.97 1.87 1.79 1.80 1.84 1.84
1.21 1.20 1.15 1.10 1.07 1.09 1.12 1.19 1.28 1.24 1.20 1.24 1.21 1.16 1.21 1.36 1.38 1.21 1.27 1.17 1.26 1.31 1.33 1.41 1.41 1.30 1.28 1.37 1.29 1.27 1.21 1.17 1.30 1.22 1.38 1.76 1.93 2.01 1.96 1.97 2.06 1.98 1.80
0.93 0.98 0.97 0.91 0.96 1.04 1.04 1.18 1.27 1.19 1.17 1.14 1.15 1.11 1.14 1.19 1.21 1.11 1.14 1.14 1.28 1.28 1.22 1.36 1.42 1.34 1.46 1.59 1.62 1.62 1.51 1.32 1.48 1.51 1.40 1.50 1.70 1.78 1.88 1.92 1.96 1.90 1.81
0.71 0.74 0.80 0.81 0.85 0.93 1.04 1.15 1.19 1.17 1.16 1.10 1.09 1.05 1.02 1.01 1.10 0.99 1.08 1.14 1.23 1.25 1.25 1.29 1.50 1.42 1.44 1.44 1.46 1.56 1.51 1.33 1.19 1.20 1.19 1.11 1.07 1.20 1.45 1.54 1.79 1.93 1.87
0.66 0.66 0.70 0.73 0.79 0.92 1.02 0.99 0.96 0.99 1.04 1.05 1.08 1.02 0.96 1.00 1.10 1.10 1.15 1.14 1.20 1.24 1.34 1.37 1.35 1.51 1.38 1.32 1.29 1.25 1.35 1.35 1.33 1.36 1.40 1.27 1.18 1.15 1.18 1.23 1.45 1.70 1.86
0.58 0.62 0.61 0.61 0.66 0.74 0.82 0.91 0.90 0.90 0.94 0.92 0.92 0.92 0.88 0.95 1.02 1.00 1.03 1.06 1.15 1.12 1.16 1.17 1.14 1.30 1.16 1.10 1.03 1.07 1.19 1.25 1.30 1.44 1.43 1.35 1.31 1.25 1.23 1.26 1.34 1.44 1.53
0.59 0.62 0.59 0.57 0.59 0.65 0.73 0.84 0.92 0.94 0.92 0.89 0.81 0.77 0.77 0.78 0.85 0.89 0.85 0.84 0.89 0.89 0.88 1.04 1.08 1.07 1.01 0.93 0.99 1.04 1.06 1.09 1.20 1.30 1.30 1.23 1.22 1.29 1.32 1.30 1.34 1.39 1.37
0.57 0.62 0.62 0.63 0.66 0.67 0.69 0.75 0.88 0.94 0.86 0.78 0.77 0.77 0.79 0.79 0.75 0.74 0.76 0.74 0.75 0.82 0.82 0.92 0.96 0.92 0.91 0.91 0.95 0.99 1.02 1.07 1.15 1.19 1.18 1.19 1.20 1.27 1.36 1.33 1.33 1.42 1.49
0.54 0.59 0.59 0.63 0.68 0.67 0.63 0.63 0.70 0.77 0.83 0.85 0.83 0.84 0.86 0.86 0.78 0.73 0.69 0.72 0.77 0.85 0.94 0.89 0.88 0.86 0.87 0.93 0.95 0.96 1.01 1.07 1.07 1.05 1.11 1.15 1.16 1.21 1.25 1.25 1.29 1.34 1.37
0.54 0.58 0.59 0.62 0.67 0.66 0.63 0.63 0.65 0.65 0.74 0.77 0.77 0.79 0.71 0.68 0.69 0.65 0.63 0.67 0.74 0.83 0.97 1.02 1.04 1.08 1.10 1.09 1.06 0.97 0.94 0.98 1.04 1.11 1.16 1.18 1.19 1.18 1.21 1.22 1.25 1.33 1.34
0.62 0.63 0.64 0.64 0.63 0.62 0.64 0.67 0.66 0.62 0.61 0.62 0.63 0.62 0.62 0.65 0.62 0.62 0.63 0.66 0.71 0.77 0.91 1.07 1.10 1.09 1.05 1.03 0.99 0.94 0.88 0.85 0.89 1.01 1.15 1.26 1.27 1.26 1.28 1.33 1.31 1.27 1.25
0.75 0.81 0.75 0.69 0.66 0.63 0.64 0.70 0.71 0.71 0.67 0.58 0.57 0.61 0.61 0.62 0.63 0.66 0.76 0.84 0.79 0.78 0.86 0.95 0.97 0.97 0.92 0.88 0.83 0.80 0.82 0.82 0.83 0.88 0.92 1.03 1.19 1.29 1.36 1.39 1.43 1.46 1.45
0.71 0.77 0.80 0.78 0.75 0.72 0.73 0.80 0.79 0.69 0.63 0.62 0.59 0.61 0.64 0.65 0.67 0.69 0.73 0.75 0.73 0.74 0.76 0.77 0.74 0.74 0.75 0.75 0.74 0.78 0.83 0.82 0.83 0.86 0.86 0.88 0.98 1.14 1.31 1.41 1.46 1.56 1.53
0.57 0.66 0.75 0.79 0.80 0.80 0.83 0.85 0.82 0.74 0.64 0.62 0.60 0.60 0.61 0.61 0.59 0.60 0.61 0.64 0.70 0.70 0.70 0.71 0.73 0.72 0.70 0.70 0.73 0.77 0.85 0.88 0.85 0.88 0.93 0.95 1.03 1.10 1.15 1.26 1.42 1.47 1.39
0.51 0.54 0.62 0.66 0.69 0.71 0.76 0.81 0.83 0.80 0.73 0.68 0.66 0.65 0.66 0.61 0.62 0.61 0.60 0.63 0.65 0.67 0.67 0.69 0.72 0.73 0.71 0.75 0.77 0.79 0.84 0.89 0.89 0.89 0.90 0.97 1.04 1.13 1.18 1.21 1.25 1.30 1.35
0.55 0.54 0.56 0.60 0.62 0.65 0.70 0.72 0.76 0.79 0.78 0.75 0.74 0.75 0.79 0.69 0.66 0.67 0.66 0.67 0.69 0.69 0.70 0.75 0.79 0.77 0.74 0.77 0.82 0.85 0.88 0.89 0.89 0.93 0.99 1.02 1.07 1.10 1.18 1.27 1.28 1.29 1.32
0.55 0.54 0.54 0.60 0.62 0.67 0.70 0.68 0.70 0.71 0.70 0.69 0.68 0.71 0.71 0.68 0.69 0.69 0.72 0.72 0.73 0.75 0.78 0.85 0.88 0.86 0.84 0.84 0.86 0.87 0.89 0.91 0.93 0.97 1.04 1.07 1.08 1.09 1.14 1.21 1.21 1.24 1.26
0.59 0.60 0.63 0.67 0.65 0.64 0.67 0.69 0.68 0.67 0.68 0.68 0.69 0.72 0.72 0.72 0.72 0.71 0.71 0.71 0.71 0.72 0.74 0.80 0.87 0.89 0.92 0.93 0.94 0.91 0.91 0.97 0.97 0.97 1.06 1.17 1.18 1.14 1.16 1.21 1.21 1.22 1.31
0.67 0.67 0.70 0.74 0.75 0.74 0.74 0.73 0.72 0.72 0.73 0.75 0.77 0.78 0.76 0.76 0.74 0.72 0.71 0.72 0.74 0.74 0.74 0.75 0.81 0.88 0.94 0.99 0.98 0.95 1.07 1.11 1.07 1.00 0.98 1.09 1.15 1.18 1.24 1.28 1.33 1.41 1.54
0.71 0.74 0.76 0.77 0.79 0.81 0.84 0.84 0.81 0.82 0.83 0.83 0.83 0.85 0.85 0.86 0.84 0.83 0.81 0.78 0.76 0.74 0.75 0.79 0.83 0.85 0.89 0.97 1.04 1.12 1.13 1.04 1.04 1.12 1.05 1.06 1.13 1.18 1.31 1.41 1.46 1.58 1.67